DLH255 EDDL-EHRD

Flight info

Callsign DLH255
Flight time 0h 29m
Altitude 18000
Route SONEB6Z SONEB
Aircraft A319/M-SDE3FGHIRWY/LB1

Departure

Time 2026-05-05 17:00
Airport Düsseldorf Airport (EDDL)

Arrival

Time 2026-05-05 17:29
Airport Rotterdam The Hague Airport (EHRD)
Time Latitude Longitude Altitude Speed Heading
2026-05-05 16:44 51.28156 6.76720 137 ft 0 kts 275°
2026-05-05 16:45 51.28206 6.76749 137 ft 0 kts 253°
2026-05-05 16:53 51.28210 6.76777 137 ft 4 kts 272°
2026-05-05 16:53 51.28203 6.76816 137 ft 4 kts 316°
2026-05-05 16:53 51.28180 6.76837 137 ft 4 kts 352°
2026-05-05 16:53 51.28167 6.76838 137 ft 0 kts
2026-05-05 16:55 51.28175 6.76839 137 ft 4 kts
2026-05-05 16:56 51.28224 6.76849 137 ft 8 kts
2026-05-05 16:56 51.28293 6.76823 137 ft 14 kts 324°
2026-05-05 16:56 51.28375 6.76719 137 ft 16 kts 322°
2026-05-05 16:56 51.28393 6.76576 137 ft 16 kts 233°
2026-05-05 16:57 51.28324 6.76432 137 ft 17 kts 232°
2026-05-05 16:57 51.28250 6.76276 137 ft 21 kts 233°
2026-05-05 16:57 51.28158 6.76081 137 ft 22 kts 233°
2026-05-05 16:57 51.28064 6.75883 137 ft 22 kts 233°
2026-05-05 16:58 51.27969 6.75682 137 ft 21 kts 233°
2026-05-05 16:58 51.27881 6.75497 136 ft 19 kts 232°
2026-05-05 16:58 51.27855 6.75344 136 ft 16 kts 314°
2026-05-05 16:58 51.27988 6.75265 131 ft 22 kts 20°
2026-05-05 16:59 51.28067 6.75428 131 ft 20 kts 52°
2026-05-05 16:59 51.28275 6.75858 133 ft 86 kts 53°
2026-05-05 16:59 51.28777 6.76905 138 ft 148 kts 52°
2026-05-05 16:59 51.29439 6.78282 615 ft 157 kts 50°
2026-05-05 17:00 51.30113 6.79686 1177 ft 161 kts 54°
2026-05-05 17:00 51.30805 6.81134 1726 ft 171 kts 54°
2026-05-05 17:00 51.31569 6.82756 2065 ft 194 kts 55°
2026-05-05 17:00 51.32424 6.84566 2386 ft 219 kts 54°
2026-05-05 17:01 51.33370 6.86551 2835 ft 242 kts 54°
2026-05-05 17:01 51.35178 6.89906 3745 ft 273 kts 35°
2026-05-05 17:01 51.38894 6.91586 5678 ft 283 kts
2026-05-05 17:01 51.42794 6.91106 7553 ft 288 kts 331°
2026-05-05 17:02 51.45545 6.83600 10193 ft 287 kts 276°
2026-05-05 17:02 51.47228 6.76415 11219 ft 321 kts 287°
2026-05-05 17:02 51.47900 6.69300 12900 ft 327 kts 273°
2026-05-05 17:02 51.48318 6.61934 14393 ft 335 kts 276°
2026-05-05 17:03 51.49033 6.54468 15814 ft 342 kts 279°
2026-05-05 17:03 51.49941 6.46879 17226 ft 350 kts 279°
2026-05-05 17:03 51.50898 6.39088 17877 ft 353 kts 279°
2026-05-05 17:03 51.51786 6.31714 17887 ft 322 kts 279°
2026-05-05 17:04 51.52587 6.24904 17897 ft 305 kts 279°
2026-05-05 17:04 51.53356 6.18212 17892 ft 304 kts 279°
2026-05-05 17:04 51.54124 6.11529 17891 ft 304 kts 279°
2026-05-05 17:04 51.54897 6.04845 17891 ft 304 kts 279°
2026-05-05 17:05 51.55661 5.98177 17895 ft 304 kts 279°
2026-05-05 17:05 51.56420 5.91498 17890 ft 304 kts 279°
2026-05-05 17:05 51.57174 5.84815 17889 ft 303 kts 279°
2026-05-05 17:05 51.57929 5.78138 17894 ft 303 kts 279°
2026-05-05 17:06 51.58678 5.71490 17897 ft 303 kts 279°
2026-05-05 17:06 51.59416 5.64828 17899 ft 302 kts 279°
2026-05-05 17:06 51.60149 5.58178 17903 ft 302 kts 279°
2026-05-05 17:06 51.60885 5.51528 17904 ft 302 kts 280°
2026-05-05 17:07 51.61618 5.44875 17904 ft 301 kts 280°
2026-05-05 17:07 51.62341 5.38235 17906 ft 301 kts 280°
2026-05-05 17:07 51.63062 5.31594 17902 ft 303 kts 280°
2026-05-05 17:07 51.63820 5.24568 17384 ft 338 kts 279°
2026-05-05 17:08 51.64628 5.17027 16289 ft 342 kts 279°
2026-05-05 17:08 51.65427 5.09527 15446 ft 339 kts 279°
2026-05-05 17:08 51.66210 5.02114 14689 ft 334 kts 279°
2026-05-05 17:08 51.66973 4.94789 13951 ft 329 kts 279°
2026-05-05 17:09 51.67720 4.87576 13174 ft 324 kts 279°
2026-05-05 17:09 51.68456 4.80483 12435 ft 318 kts 279°
2026-05-05 17:09 51.69177 4.73530 11702 ft 313 kts 279°
2026-05-05 17:09 51.69892 4.66658 10959 ft 308 kts 279°
2026-05-05 17:10 51.70584 4.59899 10209 ft 304 kts 279°
2026-05-05 17:10 51.71254 4.53247 9615 ft 293 kts 279°
2026-05-05 17:10 51.71897 4.46828 8849 ft 289 kts 279°
2026-05-05 17:10 51.72535 4.40479 8086 ft 284 kts 279°
2026-05-05 17:11 51.73161 4.34206 7258 ft 282 kts 279°
2026-05-05 17:11 51.73939 4.28056 6459 ft 278 kts 295°
2026-05-05 17:11 51.76562 4.23931 5624 ft 274 kts 336°
2026-05-05 17:11 51.78400 4.23175 4896 ft 279 kts 351°
2026-05-05 17:12 51.80338 4.22671 4126 ft 278 kts 351°
2026-05-05 17:12 51.82210 4.22176 3631 ft 269 kts 351°
2026-05-05 17:12 51.84022 4.21954 3268 ft 255 kts
2026-05-05 17:12 51.85692 4.22558 3033 ft 238 kts 21°
2026-05-05 17:13 51.87096 4.23791 2786 ft 223 kts 36°
2026-05-05 17:13 51.88192 4.25461 2524 ft 213 kts 50°
2026-05-05 17:13 51.88995 4.27361 2282 ft 194 kts 55°
2026-05-05 17:13 51.89704 4.29115 2011 ft 180 kts 54°
2026-05-05 17:14 51.90360 4.30741 1779 ft 167 kts 54°
2026-05-05 17:14 51.90967 4.32248 1563 ft 151 kts 54°
2026-05-05 17:14 51.91495 4.33599 1355 ft 135 kts 56°
2026-05-05 17:14 51.91968 4.34862 1148 ft 127 kts 53°
2026-05-05 17:15 51.92454 4.36042 996 ft 125 kts 51°
2026-05-05 17:15 51.92952 4.37188 827 ft 125 kts 52°
2026-05-05 17:15 51.93410 4.38339 717 ft 122 kts 55°
2026-05-05 17:15 51.93878 4.39502 537 ft 123 kts 54°
2026-05-05 17:16 51.94338 4.40655 384 ft 121 kts 55°
2026-05-05 17:16 51.94790 4.41801 241 ft 120 kts 57°
2026-05-05 17:16 51.95249 4.42941 64 ft 120 kts 54°
2026-05-05 17:16 51.95705 4.44057 9 ft 118 kts 55°
2026-05-05 17:17 51.96205 4.45266 492 ft 136 kts 55°
2026-05-05 17:17 51.96758 4.46667 1025 ft 163 kts 55°
2026-05-05 17:17 51.97423 4.48378 1408 ft 198 kts 54°
2026-05-05 17:17 51.98203 4.50333 2081 ft 206 kts 55°
2026-05-05 17:18 51.99294 4.53071 3409 ft 205 kts 56°
2026-05-05 17:18 52.00888 4.57077 4865 ft 220 kts 56°
2026-05-05 17:18 52.02571 4.61316 4907 ft 218 kts 57°
2026-05-05 17:18 52.02636 4.65912 4921 ft 223 kts 130°
2026-05-05 17:19 51.99972 4.68455 4911 ft 225 kts 156°
2026-05-05 17:19 51.97057 4.70059 4865 ft 223 kts 185°
2026-05-05 17:19 51.94525 4.67476 4907 ft 222 kts 239°
2026-05-05 17:19 51.92883 4.63263 4726 ft 221 kts 238°
2026-05-05 17:20 51.91231 4.59132 4120 ft 222 kts 238°
2026-05-05 17:20 51.89853 4.55682 3619 ft 221 kts 237°
2026-05-05 17:20 51.88894 4.53722 3314 ft 222 kts 231°
2026-05-05 17:20 51.87921 4.51787 3177 ft 221 kts 232°
2026-05-05 17:21 51.87023 4.49771 3285 ft 221 kts 237°
2026-05-05 17:21 51.86172 4.47710 3044 ft 219 kts 238°
2026-05-05 17:21 51.85341 4.45697 2909 ft 212 kts 238°
2026-05-05 17:22 51.83729 4.41811 2509 ft 207 kts 238°
2026-05-05 17:22 51.82922 4.39886 2298 ft 206 kts 238°
2026-05-05 17:22 51.82117 4.37980 2079 ft 205 kts 238°
2026-05-05 17:22 51.81311 4.36070 1999 ft 205 kts 237°
2026-05-05 17:23 51.80509 4.34152 1998 ft 206 kts 241°
2026-05-05 17:23 51.80141 4.31988 1993 ft 200 kts 278°
2026-05-05 17:23 51.80653 4.29992 2000 ft 192 kts 317°
2026-05-05 17:23 51.81695 4.28696 2012 ft 188 kts 331°
2026-05-05 17:24 51.82795 4.27607 2005 ft 188 kts 332°
2026-05-05 17:24 51.83922 4.26526 1999 ft 189 kts 333°
2026-05-05 17:24 51.85093 4.25579 2000 ft 186 kts 345°
2026-05-05 17:24 51.86371 4.25302 2007 ft 184 kts
2026-05-05 17:25 51.87577 4.25990 2016 ft 185 kts 30°
2026-05-05 17:25 51.87935 4.26330 2013 ft 185 kts 31°
2026-05-05 17:25 51.89505 4.28597 2029 ft 186 kts 56°
2026-05-05 17:25 51.90192 4.30314 1824 ft 178 kts 54°
2026-05-05 17:26 51.90858 4.31974 1613 ft 172 kts 54°
2026-05-05 17:26 51.91475 4.33512 1389 ft 152 kts 54°
2026-05-05 17:26 51.92015 4.34859 1193 ft 133 kts 52°
2026-05-05 17:26 51.92495 4.36055 1019 ft 123 kts 53°
2026-05-05 17:27 51.92953 4.37193 873 ft 117 kts 53°
2026-05-05 17:27 51.93394 4.38292 720 ft 115 kts 54°
2026-05-05 17:27 51.93827 4.39381 536 ft 116 kts 54°
2026-05-05 17:27 51.94272 4.40489 416 ft 117 kts 54°
2026-05-05 17:28 51.94566 4.41220 312 ft 117 kts 56°
2026-05-05 17:28 51.95010 4.42337 125 ft 118 kts 53°
2026-05-05 17:28 51.95459 4.43449 3 ft 116 kts 54°
2026-05-05 17:28 51.95835 4.44378 -8 ft 78 kts 58°
2026-05-05 17:29 51.96039 4.44902 -6 ft 37 kts 58°
2026-05-05 17:29 51.96133 4.45147 -4 ft 22 kts 59°
2026-05-05 17:29 51.96127 4.45348 -3 ft 12 kts 125°
2026-05-05 17:29 51.96076 4.45406 -2 ft 0 kts 167°
2026-05-05 17:30 51.96069 4.45406 -2 ft 2 kts 180°
2026-05-05 17:30 51.96040 4.45386 -2 ft 7 kts 214°
2026-05-05 17:30 51.95987 4.45262 -3 ft 16 kts 237°
2026-05-05 17:31 51.95924 4.45105 -5 ft 17 kts 237°
2026-05-05 17:31 51.95855 4.44930 -7 ft 19 kts 236°
2026-05-05 17:31 51.95781 4.44744 -8 ft 20 kts 237°
2026-05-05 17:31 51.95705 4.44557 -6 ft 19 kts 237°
2026-05-05 17:32 51.95633 4.44376 -5 ft 19 kts 237°